Location: �clusier
(49.9361°N, 2.7869°E)
Time: 04:42:20
(UTC+00:00)

Cosmos 1943 Rocket - Pass Details

Date: 29 October 2021
Orbit: 811 x 844 km, 71.0° (Epoch: 07 December)

Event Time Altitude Azimuth Distance (km) Brightness Sun altitude
Rises 18:48:41 0° 333° (NNW) 3,416 5.8 -22.7°
Reaches altitude 10° 18:51:36 10° 347° (NNW) 2,476 4.8 -23.1°
Enters shadow 18:55:28 24° 29° (NNE) 1,675 3.5 -23.8°
